Regional Weather Roundup
Issued by NWS

Home | Current Version | Previous Version | Graphics & Text | Print | Product List | Glossary On
Versions: 1 2 3 4 5 6 7 8 9 10 11 12 13 14 15 16 17 18 19 20 21 22 23 24 25 26 27 28 29 30 31 32 33 34 35 36 37 38 39 40 41 42 43 44 45 46 47 48 49 50
000
ASUS44 KMEG 250900
RWRTN
TENNESSEE HOURLY STATE WEATHER ROUNDUP
NATIONAL WEATHER SERVICE MEMPHIS TN
300 AM CST SAT FEB 25 2017

TNZ002-004-019-021-049-052-054-088>092-251000-
WEST TENNESSEE

CITY           SKY/WX    TMP DP  RH WIND       PRES   REMARKS
MEMPHIS INTL   CLEAR     40  27  59 NW17G28   29.97R WCI  31
NWS MEMPHIS      N/A     40 N/A N/A MISG        N/A
JACKSON        CLEAR     44  30  57 NW22G29   29.91R
UNION CITY     CLEAR     39  23  52 W14       29.89R WCI  31
PARIS          CLEAR     39  27  60 W8        29.86R WCI  34
$$

TNZ008-025-027-028-033-062-065-066-251000-
NORTH MIDDLE TENNESSEE

CITY           SKY/WX    TMP DP  RH WIND       PRES   REMARKS
NASHVILLE      PTCLDY    52  25  35 NW14G22   29.81R
CLARKSVILLE    CLEAR     46  29  51 W10       29.82R
SMYRNA         PTCLDY    52  28  39 NW16G23   29.81R
CROSSVILLE     CLOUDY    53  49  86 W14       29.74R
$$

TNZ061-075-076-078-094-096-097-251000-
SOUTH MIDDLE TENNESSEE

CITY           SKY/WX    TMP DP  RH WIND       PRES   REMARKS
TULLAHOMA      CLOUDY    54  43  66 W9        29.80R
WINCHESTER     CLOUDY    55  43  62 NW5       29.79R
MCMINNVILLE    CLOUDY    55  46  71 W8        29.77R
COLUMBIA       CLEAR     50  30  46 NW12      29.81S
SHELBYVILLE    MOCLDY    55  39  54 W12       29.80R
$$

TNZ017-018-042-046-047-251000-
NORTHEAST TENNESSEE

CITY           SKY/WX    TMP DP  RH WIND       PRES   REMARKS
TRI CITIES     CLOUDY    65  50  58 S6        29.63F THUNDER
$$

TNZ012-013-036-069-073-074-251000-
CENTRAL EAST TENNESSEE

CITY           SKY/WX    TMP DP  RH WIND       PRES   REMARKS
KNOXVILLE      NOT AVBL
OAK RIDGE      LGT RAIN  58  55  90 SW5       29.70R FOG
GATLINBURG     MOCLDY    64  52  63 W25G39    29.66R
$$

TNZ083-085-099-251000-
SOUTHEAST TENNESSEE

CITY           SKY/WX    TMP DP  RH WIND       PRES   REMARKS
CHATTANOOGA    LGT RAIN  60  58  92 CALM      29.72S
$$

SKY/WX REPORTED AS FAIR MEANS FEW OR NO CLOUDS BELOW
12 THOUSAND FEET.




USA.gov is the U.S. government's official web portal to all federal, state and local government web resources and services.